Content
SEND FEEDBACK

Daily
Averages
Monthly
Summary
United States of America

MALAGA, NEW MEXICO


Home > North America > United States > New Mexico
Elevation: 3110 feet     Latitude: 32 25N     Longitude: 104 14W

WEATHER
 
SELECT A DAY
Number of Records: 179,171;   Date Range: 1/1/95 - 9/13/14
 
SHARE

PRINT THIS DATA

[ ← Previous Day ]
WEATHER ALMANAC - JANUARY 31, 2013
[ Next Day → ]
[ °C ]   °F
Weather ElementAverageHighLow
Temperature47.5 °F62.1 °F (1:53 pm)27 °F (3:53 am)
Dewpoint11.7 °F16 °F (11:53 pm)9 °F (1:53 am)
Humidity26 %47 % (3:53 am)13 % (1:53 pm)
Barometer30.14 in30.21 in (8:53 pm)30.10 in (2:53 pm)
Wind Speed4.2 mph10.4 mph (7:53 pm)
Weather ElementAverage
Visibility10 mi
Wind DirectionESE (127.8 °)

Weather ElementTotal
Precipitation---
Heating Degree Days20.5 (Base 65)
Averaged from 23 records on January 31, 2013
WEATHER CONDITIONS BREAKOUT
WIND DIRECTION BREAKOUT
WEATHER BY HOUR - JANUARY 31, 2013
[ °C ]   °F
Local TimeTemperatureDewpointHumidityBarometerVisibilityWind DirectionWind SpeedGust SpeedPrecipitationEventsConditions
1:53 AM28.9 °F9.0 °F43 %30.14 in10.0 miCalmClear
2:53 AM28.9 °F9.0 °F43 %30.14 in10.0 miNNE (30°)5.8 mphClear
3:53 AM27.0 °F9.0 °F47 %30.13 in10.0 miCalmClear
4:53 AM34.0 °F9.0 °F35 %30.12 in10.0 miCalmClear
5:53 AM32.0 °F10.0 °F40 %30.14 in10.0 miCalmClear
6:53 AM36.0 °F10.9 °F36 %30.14 in10.0 miNW (310°)4.6 mphClear
7:53 AM44.1 °F12.0 °F27 %30.16 in10.0 miWest (280°)9.2 mphClear
8:53 AM51.1 °F12.9 °F22 %30.17 in10.0 miNNW (330°)3.5 mphClear
9:53 AM55.9 °F10.9 °F17 %30.18 in10.0 miNNW (330°)9.2 mphClear
10:53 AM57.9 °F12.0 °F16 %30.17 in10.0 miNNE (30°)5.8 mphClear
11:53 AM59.0 °F12.0 °F16 %30.13 in10.0 miVariable3.5 mphClear
12:53 PM60.1 °F10.0 °F14 %30.13 in10.0 miCalmClear
1:53 PM62.1 °F10.9 °F13 %30.11 in10.0 miCalmClear
2:53 PM62.1 °F10.0 °F13 %30.10 in10.0 miSE (130°)3.5 mphClear
3:53 PM62.1 °F10.0 °F13 %30.10 in10.0 miCalmClear
4:53 PM60.1 °F10.0 °F14 %30.11 in10.0 miCalmClear
5:53 PM52.0 °F12.9 °F21 %30.13 in10.0 miSouth (190°)5.8 mphClear
6:53 PM48.0 °F15.1 °F27 %30.14 in10.0 miSouth (190°)9.2 mphClear
7:53 PM51.1 °F15.1 °F24 %30.14 in10.0 miSouth (190°)10.4 mphClear
8:53 PM48.2 °F14.0 °F25 %30.21 in10.0 miSSW (200°)8.1 mphClear
9:53 PM46.9 °F14.0 °F27 %30.14 in10.0 miWSW (250°)3.5 mphClear
10:53 PM45.0 °F15.1 °F30 %30.16 in10.0 miWSW (240°)9.2 mphClear
11:53 PM41.0 °F16.0 °F36 %30.15 in10.0 miWSW (240°)4.6 mphClear
Hourly data recorded from KCNM, located miles away from Malaga, New Mexico







STORIES FROM OUR PARTNERS